South St. Paul, MN

1:54 AM CST on January 17, 2018 (GMT -0600)
South Saint Paul Municipal-Fleming

Weather History for KSGS - September, 2012

Change the Weather History Date:

Sunday, September 30, 2012

  Actual Average (KSTP) Record (KSTP)
Temperature  
Mean Temperature 61 °F -  
Max Temperature 76 °F 63 °F 84 °F (2002)
Min Temperature 46 °F 42 °F 33 °F (2003)
Degree Days  
Heating Degree Days 4    
Growing Degree Days 11 (Base 50)    
Moisture  
Dew Point 40 °F    
Average Humidity 49    
Maximum Humidity 80    
Minimum Humidity 23    
Precipitation  
Precipitation 0.00 in - - ()
Sea Level Pressure  
Sea Level Pressure 29.97 in    
Wind  
Wind Speed 1 mph (SSE)    
Max Wind Speed 6 mph    
Max Gust Speed -    
Visibility 10 miles    
Events      
Averages and records for this station are not official NWS values.
T = Trace of Precipitation, MM = Missing Value Source: NWS Daily Summary

Daily Weather History Graph

Daily Weather History Graph

Search for Another Location

Airport or City:

Trip Planner

Search our weather history database for the weather conditions in past years. The results will help you decide how hot, cold, wet, or windy it might be!

Date:

Astronomy

Sep. 30, 2012 Rise Set
Actual Time 7:09 AM CDT 6:53 PM CDT
Civil Twilight 6:40 AM CDT 7:22 PM CDT
Nautical Twilight 6:06 AM CDT 7:56 PM CDT
Astronomical Twilight 5:31 AM CDT 8:31 PM CDT
Moon 6:53 PM CDT (9/30) 7:44 AM CDT (9/30)
Length of Visible Light 12h 42m
Length of Day
11h 44m
Full, 100% of the Moon is Illuminated
Sep 30
Full
Oct 8
Last Quarter
Oct 15
New
Oct 21
First Quarter
Oct 29
Full

Hourly Weather History & Observations

Time (CDT) Temp. Dew Point Humidity Pressure Visibility Wind Dir Wind Speed Gust Speed Precip Events Conditions
12:12 AM 62.8 °F 39.7 °F 43% 30.03 in 10.0 mi Calm Calm - N/A   Clear
12:32 AM 62.4 °F 40.1 °F 44% 30.04 in 10.0 mi Calm Calm - N/A   Clear
12:52 AM 60.6 °F 40.6 °F 48% 30.03 in 10.0 mi Calm Calm - N/A   Clear
1:12 AM 55.8 °F 43.9 °F 64% 30.04 in 10.0 mi Calm Calm - N/A   Clear
1:32 AM 54.5 °F 42.6 °F 64% 30.03 in 10.0 mi Calm Calm - N/A   Clear
1:52 AM 55.2 °F 41.9 °F 61% 30.03 in 10.0 mi Calm Calm - N/A   Clear
2:12 AM 54.0 °F 42.3 °F 65% 30.03 in 10.0 mi Calm Calm - N/A   Clear
2:32 AM 52.7 °F 44.4 °F 73% 30.02 in 10.0 mi Calm Calm - N/A   Clear
2:52 AM 52.3 °F 43.9 °F 73% 30.01 in 10.0 mi Calm Calm - N/A   Clear
3:12 AM 51.3 °F 43.3 °F 74% 30.01 in 10.0 mi Calm Calm - N/A   Clear
3:32 AM 51.1 °F 43.2 °F 74% 30.01 in 10.0 mi Calm Calm - N/A   Clear
3:52 AM 50.9 °F 43.3 °F 75% 30.01 in 10.0 mi Calm Calm - N/A   Clear
4:12 AM 50.4 °F 42.8 °F 75% 30.01 in 10.0 mi Calm Calm - N/A   Clear
4:32 AM 50.0 °F 42.6 °F 76% 30.01 in 10.0 mi Calm Calm - N/A   Clear
4:52 AM 50.0 °F 43.0 °F 77% 30.02 in 10.0 mi Calm Calm - N/A   Clear
5:12 AM 49.1 °F 41.5 °F 75% 30.01 in 10.0 mi Calm Calm - N/A   Clear
5:32 AM 49.3 °F 42.4 °F 77% 30.02 in 10.0 mi Calm Calm - N/A   Clear
5:52 AM 49.1 °F 41.7 °F 76% 30.01 in 10.0 mi Calm Calm - N/A   Clear
6:12 AM 47.8 °F 41.0 °F 77% 30.01 in 10.0 mi Calm Calm - N/A   Clear
6:32 AM 48.2 °F 41.0 °F 76% 30.01 in 10.0 mi Calm Calm - N/A   Clear
6:52 AM 47.7 °F 41.2 °F 78% 30.01 in 10.0 mi Calm Calm - N/A   Clear
7:12 AM 46.8 °F 40.8 °F 80% 30.01 in 10.0 mi Calm Calm - N/A   Clear
7:32 AM 47.3 °F 41.2 °F 79% 30.01 in 10.0 mi Calm Calm - N/A   Clear
7:52 AM 47.8 °F 41.4 °F 78% 30.01 in 10.0 mi Calm Calm - N/A   Clear
8:12 AM 50.2 °F 41.5 °F 72% 30.01 in 10.0 mi Calm Calm - N/A   Clear
8:32 AM 52.0 °F 41.4 °F 67% 30.02 in 10.0 mi Calm Calm - N/A   Clear
8:52 AM 54.1 °F 40.8 °F 61% 30.01 in 10.0 mi Calm Calm - N/A   Clear
9:12 AM 55.4 °F 40.6 °F 58% 30.01 in 10.0 mi Calm Calm - N/A   Clear
9:32 AM 56.8 °F 40.5 °F 54% 30.01 in 10.0 mi Calm Calm - N/A   Clear
9:52 AM 59.0 °F 39.7 °F 49% 30.00 in 10.0 mi SSE 3.5 mph - N/A   Clear
10:12 AM 60.3 °F 40.1 °F 47% 30.01 in 10.0 mi SE 3.5 mph - N/A   Clear
10:32 AM 61.7 °F 40.1 °F 45% 30.00 in 10.0 mi Calm Calm - N/A   Clear
10:52 AM 63.3 °F 40.3 °F 43% 30.00 in 10.0 mi Calm Calm - N/A   Clear
11:12 AM 65.3 °F 39.7 °F 39% 30.00 in 10.0 mi Calm Calm - N/A   Clear
11:32 AM 66.7 °F 39.6 °F 37% 30.00 in 10.0 mi Calm Calm - N/A   Clear
11:52 AM 69.6 °F 38.3 °F 32% 29.99 in 10.0 mi Calm Calm - N/A   Clear
12:12 PM 70.2 °F 38.1 °F 31% 29.99 in 10.0 mi SSE 3.5 mph - N/A   Clear
12:32 PM 71.6 °F 35.2 °F 26% 29.98 in 10.0 mi Calm Calm - N/A   Clear
12:52 PM 72.5 °F 36.7 °F 27% 29.98 in 10.0 mi SW 3.5 mph - N/A   Clear
1:12 PM 73.2 °F 36.9 °F 27% 29.97 in 10.0 mi ESE 3.5 mph - N/A   Clear
1:32 PM 73.6 °F 37.4 °F 27% 29.96 in 10.0 mi SSW 5.8 mph - N/A   Clear
1:52 PM 75.0 °F 36.5 °F 25% 29.95 in 10.0 mi Calm Calm - N/A   Clear
2:12 PM 75.2 °F 36.1 °F 24% 29.95 in 10.0 mi SSW 4.6 mph - N/A   Clear
2:32 PM 75.4 °F 35.8 °F 24% 29.94 in 10.0 mi Calm Calm - N/A   Clear
2:52 PM 74.8 °F 36.5 °F 25% 29.93 in 10.0 mi Calm Calm - N/A   Clear
3:12 PM 76.3 °F 36.9 °F 24% 29.93 in 10.0 mi SSE 3.5 mph - N/A   Clear
3:32 PM 75.6 °F 36.9 °F 25% 29.92 in 10.0 mi South 3.5 mph - N/A   Clear
3:52 PM 75.9 °F 37.2 °F 25% 29.92 in 10.0 mi South 3.5 mph - N/A   Clear
4:12 PM 75.6 °F 36.9 °F 25% 29.92 in 10.0 mi South 4.6 mph - N/A   Clear
4:32 PM 76.1 °F 36.5 °F 24% 29.92 in 10.0 mi South 3.5 mph - N/A   Clear
4:52 PM 76.5 °F 36.5 °F 24% 29.91 in 10.0 mi SSE 4.6 mph - N/A   Clear
5:12 PM 76.5 °F 36.1 °F 23% 29.91 in 10.0 mi South 5.8 mph - N/A   Clear
5:32 PM 75.9 °F 36.9 °F 24% 29.91 in 10.0 mi South 4.6 mph - N/A   Clear
5:52 PM 75.4 °F 36.9 °F 25% 29.91 in 10.0 mi SSE 4.6 mph - N/A   Clear
6:12 PM 74.3 °F 37.6 °F 26% 29.90 in 10.0 mi SSE 3.5 mph - N/A   Clear
6:32 PM 72.9 °F 38.1 °F 28% 29.90 in 10.0 mi South 3.5 mph - N/A   Clear
6:52 PM 70.9 °F 38.5 °F 31% 29.90 in 10.0 mi Calm Calm - N/A   Clear
7:12 PM 68.9 °F 39.0 °F 34% 29.90 in 10.0 mi Calm Calm - N/A   Clear
7:32 PM 67.6 °F 38.8 °F 35% 29.91 in 10.0 mi Calm Calm - N/A   Clear
7:52 PM 64.0 °F 46.6 °F 53% 29.90 in 10.0 mi Calm Calm - N/A   Clear
8:12 PM 62.6 °F 43.3 °F 49% 29.91 in 10.0 mi Calm Calm - N/A   Clear
8:31 PM 61.7 °F 43.2 °F 51% 29.90 in 10.0 mi Calm Calm - N/A   Clear
8:52 PM 61.0 °F 43.9 °F 53% 29.91 in 10.0 mi Calm Calm - N/A   Clear
9:12 PM 60.8 °F 43.7 °F 53% 29.90 in 10.0 mi Calm Calm - N/A   Clear
9:32 PM 61.0 °F 42.1 °F 50% 29.90 in 10.0 mi SSE 3.5 mph - N/A   Clear
9:52 PM 63.0 °F 40.6 °F 44% 29.90 in 10.0 mi SSE 4.6 mph - N/A   Clear
10:12 PM 62.6 °F 41.4 °F 46% 29.90 in 10.0 mi SSE 3.5 mph - N/A   Clear
10:32 PM 60.8 °F 41.9 °F 50% 29.90 in 10.0 mi Calm Calm - N/A   Clear
10:52 PM 60.1 °F 41.5 °F 50% 29.90 in 10.0 mi Calm Calm - N/A   Clear
11:12 PM 59.7 °F 41.7 °F 51% 29.90 in 10.0 mi Calm Calm - N/A   Clear
11:32 PM 58.6 °F 40.8 °F 52% 29.90 in 10.0 mi Calm Calm - N/A   Clear
11:52 PM 58.6 °F 38.8 °F 48% 29.89 in 10.0 mi Calm Calm - N/A   Clear